Location: West Sayville
(40.7279°N, 73.0976°W)
Time: 10:17:54
(UTC+00:00)

Cosmos 1992 Rocket - Pass Details

Date: 29 October 2020
Orbit: 759 x 765 km, 74.0° (Epoch: 23 November)

Event Time Altitude Azimuth Distance (km) Brightness Sun altitude
Rises 22:30:18 0° 176° (S) 3,204 7.3 -7.9°
Reaches altitude 10° 22:32:47 10° 169° (S) 2,282 6.5 -8.4°
Maximum altitude 22:37:33 38° 102° (ESE) 1,139 4.5 -9.3°
Drops below altitude 10° 22:42:20 10° 35° (NE) 2,296 6.1 -10.2°
Sets 22:44:50 0° 28° (NNE) 3,226 6.9 -10.6°
